Time,TemperatureF,DewpointF,PressureIn,WindDirection,WindDirectionDegrees,WindSpeedMPH,WindSpeedGustMPH,Humidity,HourlyPrecipIn,Conditions,Clouds,dailyrainin,SoftwareType,DateUTC
2013-05-06 00:02:00,54.2,51.9,29.88,NNE,24,0.0,3.0,92,0.00,,OVC042,0.00,VWS V14.01,2013-05-06 05:02:00,
2013-05-06 00:07:00,54.2,51.9,29.87,NNE,24,3.0,6.0,92,0.00,,OVC042,0.00,VWS V14.01,2013-05-06 05:07:00,
2013-05-06 00:12:00,54.2,51.9,29.87,NNE,24,3.0,7.5,92,0.00,,OVC042,0.00,VWS V14.01,2013-05-06 05:12:00,
2013-05-06 00:17:00,54.3,52.0,29.87,NNE,24,3.0,7.5,92,0.00,,OVC040,0.00,VWS V14.01,2013-05-06 05:17:00,
2013-05-06 00:22:00,54.2,51.9,29.87,NNE,23,9.0,9.0,92,0.00,,OVC040,0.00,VWS V14.01,2013-05-06 05:22:00,
2013-05-06 00:27:00,54.2,51.9,29.86,NNE,22,4.5,9.0,92,0.00,,OVC040,0.00,VWS V14.01,2013-05-06 05:27:00,
2013-05-06 00:32:00,54.1,51.8,29.86,NNE,19,6.0,9.0,92,0.00,,OVC040,0.00,VWS V14.01,2013-05-06 05:32:00,
2013-05-06 00:37:00,54.1,51.8,29.86,NNE,19,6.0,10.5,92,0.00,,SCT090,0.00,VWS V14.01,2013-05-06 05:37:00,
2013-05-06 00:42:00,54.0,51.7,29.86,NNE,22,4.5,10.5,92,0.00,,SCT090,0.00,VWS V14.01,2013-05-06 05:42:00,
2013-05-06 00:47:00,54.0,51.7,29.85,NNE,19,6.0,10.5,92,0.00,,SCT090,0.00,VWS V14.01,2013-05-06 05:47:00,
2013-05-06 00:52:00,54.0,51.7,29.85,NNE,20,7.5,10.5,92,0.00,,SCT090,0.00,VWS V14.01,2013-05-06 05:52:00,
2013-05-06 00:57:00,54.0,51.7,29.86,NNE,25,3.0,10.5,92,0.00,,BKN120,0.00,VWS V14.01,2013-05-06 05:57:00,
2013-05-06 01:02:00,54.0,51.7,29.86,NNE,26,6.0,7.5,92,0.00,,BKN120,0.00,VWS V14.01,2013-05-06 06:02:00,
2013-05-06 01:07:00,54.0,51.7,29.86,NNE,25,6.0,7.5,92,0.00,,BKN120,0.00,VWS V14.01,2013-05-06 06:07:00,
2013-05-06 01:12:00,54.1,51.8,29.86,NNE,26,6.0,10.5,92,0.00,,BKN120,0.00,VWS V14.01,2013-05-06 06:12:00,
2013-05-06 01:17:00,54.0,51.4,29.86,NNE,19,7.5,10.5,91,0.00,,OVC110,0.00,VWS V14.01,2013-05-06 06:17:00,
2013-05-06 01:22:00,54.0,51.4,29.85,NNE,24,6.0,12.0,91,0.00,,OVC110,0.00,VWS V14.01,2013-05-06 06:22:00,
2013-05-06 01:27:00,54.0,51.4,29.85,NNE,24,4.5,12.0,91,0.00,,OVC110,0.00,VWS V14.01,2013-05-06 06:27:00,
2013-05-06 01:32:00,54.0,51.4,29.85,NNE,27,15.0,15.0,91,0.00,,OVC110,0.00,VWS V14.01,2013-05-06 06:32:00,
2013-05-06 01:37:00,54.0,51.4,29.84,NNE,26,3.0,15.0,91,0.00,,OVC030,0.00,VWS V14.01,2013-05-06 06:37:00,
2013-05-06 01:42:00,54.0,51.4,29.84,NNE,26,3.0,15.0,91,0.00,,OVC030,0.00,VWS V14.01,2013-05-06 06:42:00,
2013-05-06 01:47:00,53.9,51.3,29.84,NNE,22,6.0,15.0,91,0.00,,OVC030,0.00,VWS V14.01,2013-05-06 06:47:00,
2013-05-06 01:52:00,53.9,51.3,29.84,NNE,22,4.5,15.0,91,0.00,,OVC030,0.00,VWS V14.01,2013-05-06 06:52:00,
2013-05-06 01:57:00,54.0,51.4,29.84,NNE,22,1.5,15.0,91,0.00,,OVC030,0.00,VWS V14.01,2013-05-06 06:57:00,
2013-05-06 02:03:00,53.9,51.3,29.84,NNE,25,3.0,10.5,91,0.00,,OVC024,0.00,VWS V14.01,2013-05-06 07:03:00,
2013-05-06 02:08:00,53.8,51.5,29.84,NNE,24,4.5,10.5,92,0.00,,OVC024,0.00,VWS V14.01,2013-05-06 07:08:00,
2013-05-06 02:13:00,53.7,51.4,29.84,NNE,28,4.5,13.5,92,0.00,,OVC024,0.00,VWS V14.01,2013-05-06 07:13:00,
2013-05-06 02:18:00,53.7,51.4,29.84,NNE,28,4.5,13.5,92,0.00,,OVC023,0.00,VWS V14.01,2013-05-06 07:18:00,
2013-05-06 02:23:00,53.7,51.4,29.84,NNE,28,1.5,13.5,92,0.00,,OVC023,0.00,VWS V14.01,2013-05-06 07:23:00,
2013-05-06 02:28:00,53.7,51.4,29.84,NNE,28,3.0,13.5,92,0.00,,OVC023,0.00,VWS V14.01,2013-05-06 07:28:00,
2013-05-06 02:33:00,53.6,51.3,29.85,NNE,26,7.5,9.0,92,0.00,,OVC023,0.00,VWS V14.01,2013-05-06 07:33:00,
2013-05-06 02:38:00,53.6,51.0,29.84,NNE,28,3.0,12.0,91,0.00,,OVC021,0.00,VWS V14.01,2013-05-06 07:38:00,
2013-05-06 02:43:00,53.6,51.0,29.84,NNE,29,6.0,12.0,91,0.00,,OVC021,0.00,VWS V14.01,2013-05-06 07:43:00,
2013-05-06 02:48:00,53.6,51.0,29.85,NNE,29,4.5,12.0,91,0.00,,OVC021,0.00,VWS V14.01,2013-05-06 07:48:00,
2013-05-06 02:53:00,53.6,51.0,29.85,NNE,29,0.0,12.0,91,0.00,,OVC021,0.00,VWS V14.01,2013-05-06 07:53:00,
2013-05-06 02:58:00,53.7,51.1,29.85,NNE,29,4.5,12.0,91,0.00,,OVC015,0.00,VWS V14.01,2013-05-06 07:58:00,
2013-05-06 03:03:00,53.6,50.7,29.85,NNE,27,0.0,9.0,90,0.00,,OVC015,0.00,VWS V14.01,2013-05-06 08:03:00,
2013-05-06 03:08:00,53.6,50.7,29.85,NNE,28,1.5,9.0,90,0.00,,OVC015,0.00,VWS V14.01,2013-05-06 08:08:00,
2013-05-06 03:13:00,53.6,51.0,29.85,NNE,27,1.5,9.0,91,0.00,,OVC015,0.00,VWS V14.01,2013-05-06 08:13:00,
2013-05-06 03:18:00,53.6,50.7,29.85,NNE,27,6.0,9.0,90,0.00,,OVC015,0.00,VWS V14.01,2013-05-06 08:18:00,
2013-05-06 03:23:00,53.5,50.6,29.85,NNE,27,0.0,9.0,90,0.00,,OVC015,0.00,VWS V14.01,2013-05-06 08:23:00,
2013-05-06 03:28:00,53.5,50.6,29.85,NNE,27,3.0,9.0,90,0.00,,OVC015,0.00,VWS V14.01,2013-05-06 08:28:00,
2013-05-06 03:33:00,53.5,50.6,29.85,NNE,27,0.0,6.0,90,0.00,,OVC015,0.00,VWS V14.01,2013-05-06 08:33:00,
2013-05-06 03:38:00,53.5,50.6,29.85,NE,36,6.0,6.0,90,0.00,,OVC019,0.00,VWS V14.01,2013-05-06 08:38:00,
2013-05-06 03:43:00,53.4,50.5,29.85,NE,36,0.0,7.5,90,0.00,,OVC019,0.00,VWS V14.01,2013-05-06 08:43:00,
2013-05-06 03:48:00,53.4,50.8,29.85,NE,36,1.5,7.5,91,0.00,,OVC019,0.00,VWS V14.01,2013-05-06 08:48:00,
2013-05-06 03:53:00,53.3,50.7,29.85,NNE,31,1.5,9.0,91,0.00,,OVC019,0.00,VWS V14.01,2013-05-06 08:53:00,
2013-05-06 03:58:00,53.3,50.7,29.85,NNE,32,0.0,9.0,91,0.00,,OVC019,0.00,VWS V14.01,2013-05-06 08:58:00,
2013-05-06 04:03:00,53.3,50.7,29.85,NNE,32,0.0,6.0,91,0.00,,OVC015,0.00,VWS V14.01,2013-05-06 09:03:00,
2013-05-06 04:08:00,53.3,50.7,29.85,NNE,32,4.5,6.0,91,0.00,,OVC015,0.00,VWS V14.01,2013-05-06 09:08:00,
2013-05-06 04:13:00,53.2,50.7,29.85,NNE,31,0.0,6.0,91,0.00,,OVC015,0.00,VWS V14.01,2013-05-06 09:13:00,
2013-05-06 04:18:00,53.2,50.7,29.85,NNE,32,0.0,6.0,91,0.00,,OVC015,0.00,VWS V14.01,2013-05-06 09:18:00,
2013-05-06 04:23:00,53.3,50.7,29.85,NNE,31,0.0,6.0,91,0.00,,OVC013,0.00,VWS V14.01,2013-05-06 09:23:00,
2013-05-06 04:28:00,53.3,50.7,29.85,NNE,31,0.0,6.0,91,0.00,,OVC013,0.00,VWS V14.01,2013-05-06 09:28:00,
2013-05-06 04:33:00,53.3,50.7,29.85,NNE,31,1.5,4.5,91,0.00,,OVC013,0.00,VWS V14.01,2013-05-06 09:33:00,
2013-05-06 04:38:00,53.3,50.7,29.85,NNE,31,0.0,6.0,91,0.00,,OVC009,0.00,VWS V14.01,2013-05-06 09:38:00,
2013-05-06 04:43:00,53.3,51.0,29.85,NNE,31,0.0,6.0,92,0.00,,OVC009,0.00,VWS V14.01,2013-05-06 09:43:00,
2013-05-06 04:48:00,53.4,51.1,29.85,NNE,31,1.5,6.0,92,0.00,,OVC009,0.00,VWS V14.01,2013-05-06 09:48:00,
2013-05-06 04:53:00,53.5,51.2,29.85,NNE,31,3.0,7.5,92,0.00,,OVC009,0.00,VWS V14.01,2013-05-06 09:53:00,
2013-05-06 04:58:00,53.5,51.2,29.85,NNE,31,0.0,7.5,92,0.00,,-RA,0.00,VWS V14.01,2013-05-06 09:58:00,
2013-05-06 05:03:00,53.6,51.3,29.85,NNE,31,0.0,3.0,92,0.00,,-RA,0.00,VWS V14.01,2013-05-06 10:03:00,
2013-05-06 05:08:00,53.6,51.3,29.85,NNE,31,3.0,4.5,92,0.00,,-RA,0.00,VWS V14.01,2013-05-06 10:08:00,
2013-05-06 05:14:00,53.5,51.2,29.86,NNE,31,3.0,4.5,92,0.00,,-RA,0.00,VWS V14.01,2013-05-06 10:14:00,
2013-05-06 05:19:00,53.5,51.2,29.85,NNE,31,3.0,4.5,92,0.00,,OVC013,0.00,VWS V14.01,2013-05-06 10:19:00,
2013-05-06 05:24:00,53.4,51.4,29.85,NNE,31,1.5,4.5,93,0.00,,OVC013,0.00,VWS V14.01,2013-05-06 10:24:00,
2013-05-06 05:29:00,53.3,51.3,29.86,NNE,31,0.0,4.5,93,0.00,,OVC013,0.00,VWS V14.01,2013-05-06 10:29:00,
2013-05-06 05:34:00,53.3,51.3,29.86,NNE,31,1.5,4.5,93,0.00,,OVC013,0.00,VWS V14.01,2013-05-06 10:34:00,
2013-05-06 05:39:00,53.2,51.2,29.86,NNE,31,0.0,4.5,93,0.00,,OVC011,0.00,VWS V14.01,2013-05-06 10:39:00,
2013-05-06 05:43:00,53.2,51.2,29.86,NNE,31,0.0,4.5,93,0.00,,OVC011,0.00,VWS V14.01,2013-05-06 10:43:00,
2013-05-06 05:48:00,53.2,51.5,29.86,NNE,31,0.0,4.5,94,0.00,,OVC011,0.00,VWS V14.01,2013-05-06 10:48:00,
2013-05-06 05:54:00,53.2,51.5,29.87,NNE,31,3.0,6.0,94,0.00,,OVC011,0.00,VWS V14.01,2013-05-06 10:54:00,
2013-05-06 05:59:00,53.2,51.5,29.87,NNE,31,0.0,6.0,94,0.00,,,0.00,VWS V14.01,2013-05-06 10:59:00,
2013-05-06 06:04:00,53.3,51.6,29.87,NNE,31,0.0,4.5,94,0.00,,,0.00,VWS V14.01,2013-05-06 11:04:00,
2013-05-06 06:09:00,53.3,51.6,29.87,NNE,31,1.5,4.5,94,0.00,,,0.00,VWS V14.01,2013-05-06 11:09:00,
2013-05-06 06:14:00,53.3,51.6,29.87,NNE,31,3.0,4.5,94,0.00,,,0.00,VWS V14.01,2013-05-06 11:14:00,
2013-05-06 06:19:00,53.4,51.7,29.87,NNE,31,3.0,4.5,94,0.00,,OVC006,0.00,VWS V14.01,2013-05-06 11:19:00,
2013-05-06 06:24:00,53.4,52.0,29.87,NNE,31,0.0,4.5,95,0.00,,OVC006,0.00,VWS V14.01,2013-05-06 11:24:00,
2013-05-06 06:29:00,53.5,52.1,29.87,NNE,31,0.0,4.5,95,0.00,,OVC006,0.00,VWS V14.01,2013-05-06 11:29:00,
2013-05-06 06:34:00,53.5,52.1,29.87,NNE,31,0.0,3.0,95,0.00,,OVC006,0.00,VWS V14.01,2013-05-06 11:34:00,
2013-05-06 06:39:00,53.6,52.2,29.87,NNE,31,0.0,4.5,95,0.00,,OVC006,0.00,VWS V14.01,2013-05-06 11:39:00,
2013-05-06 06:44:00,53.7,52.3,29.87,NNE,31,1.5,4.5,95,0.00,,OVC006,0.00,VWS V14.01,2013-05-06 11:44:00,
2013-05-06 06:49:00,53.7,52.3,29.87,NNE,31,4.5,4.5,95,0.00,,OVC006,0.00,VWS V14.01,2013-05-06 11:49:00,
2013-05-06 06:54:00,53.7,52.3,29.87,NNE,31,4.5,6.0,95,0.00,,OVC006,0.00,VWS V14.01,2013-05-06 11:54:00,
2013-05-06 06:59:00,53.8,52.4,29.88,NNE,31,1.5,6.0,95,0.00,,OVC006,0.00,VWS V14.01,2013-05-06 11:59:00,
2013-05-06 07:04:00,53.9,52.5,29.87,NNE,31,3.0,7.5,95,0.00,,-RA,0.00,VWS V14.01,2013-05-06 12:04:00,
2013-05-06 07:09:00,54.0,52.6,29.88,NNE,31,1.5,7.5,95,0.00,,-RA,0.00,VWS V14.01,2013-05-06 12:09:00,
2013-05-06 07:14:00,54.1,52.7,29.88,NNE,28,1.5,9.0,95,0.00,,-RA,0.00,VWS V14.01,2013-05-06 12:14:00,
2013-05-06 07:19:00,54.2,52.8,29.88,NNE,27,4.5,9.0,95,0.00,,-RA,0.00,VWS V14.01,2013-05-06 12:19:00,
2013-05-06 07:24:00,54.2,52.8,29.88,NNE,19,6.0,12.0,95,0.00,,-RA,0.00,VWS V14.01,2013-05-06 12:24:00,
2013-05-06 07:29:00,54.4,53.0,29.88,NNE,18,4.5,12.0,95,0.00,,-RA,0.00,VWS V14.01,2013-05-06 12:29:00,
2013-05-06 07:34:00,54.4,53.0,29.88,NNE,18,4.5,10.5,95,0.00,,-RA,0.00,VWS V14.01,2013-05-06 12:34:00,
2013-05-06 07:39:00,54.5,53.1,29.88,NNE,12,7.5,10.5,95,0.00,,-RA,0.00,VWS V14.01,2013-05-06 12:39:00,
2013-05-06 07:44:00,54.6,53.2,29.88,North,5,7.5,10.5,95,0.00,,OVC004,0.00,VWS V14.01,2013-05-06 12:44:00,
2013-05-06 07:49:00,54.8,53.4,29.88,North,5,4.5,15.0,95,0.00,,OVC004,0.00,VWS V14.01,2013-05-06 12:49:00,
2013-05-06 07:54:00,54.8,53.4,29.89,NNE,15,4.5,15.0,95,0.00,,OVC004,0.00,VWS V14.01,2013-05-06 12:54:00,
2013-05-06 07:59:00,54.9,53.5,29.89,NNE,15,6.0,15.0,95,0.00,,OVC004,0.00,VWS V14.01,2013-05-06 12:59:00,
2013-05-06 08:04:00,54.9,53.5,29.89,NNE,15,7.5,12.0,95,0.00,,OVC004,0.00,VWS V14.01,2013-05-06 13:04:00,
2013-05-06 08:09:00,55.0,53.6,29.89,NNE,22,7.5,12.0,95,0.00,,OVC004,0.00,VWS V14.01,2013-05-06 13:09:00,
2013-05-06 08:14:00,55.0,53.6,29.89,NNE,19,9.0,12.0,95,0.00,,OVC004,0.00,VWS V14.01,2013-05-06 13:14:00,
2013-05-06 08:19:00,55.1,53.7,29.89,NNE,15,7.5,12.0,95,0.00,,OVC004,0.00,VWS V14.01,2013-05-06 13:19:00,
2013-05-06 08:24:00,55.1,53.4,29.89,NNE,18,3.0,12.0,94,0.00,,OVC004,0.00,VWS V14.01,2013-05-06 13:24:00,
2013-05-06 08:29:00,55.3,53.6,29.89,North,360,12.0,12.0,94,0.00,,OVC004,0.00,VWS V14.01,2013-05-06 13:29:00,
2013-05-06 08:34:00,55.3,53.6,29.89,NNE,22,13.5,13.5,94,0.00,,OVC004,0.00,VWS V14.01,2013-05-06 13:34:00,
2013-05-06 08:39:00,55.4,53.7,29.90,NNE,15,7.5,13.5,94,0.00,,OVC004,0.00,VWS V14.01,2013-05-06 13:39:00,
2013-05-06 08:44:00,55.5,53.8,29.90,North,11,9.0,13.5,94,0.00,,OVC004,0.00,VWS V14.01,2013-05-06 13:44:00,
2013-05-06 08:49:00,55.6,53.9,29.90,NNE,15,9.0,15.0,94,0.00,,OVC004,0.00,VWS V14.01,2013-05-06 13:49:00,
2013-05-06 08:54:00,55.7,53.7,29.90,NNE,18,7.5,18.0,93,0.00,,OVC004,0.00,VWS V14.01,2013-05-06 13:54:00,
2013-05-06 08:59:00,55.7,53.7,29.90,NNE,19,6.0,6.0,93,0.00,,OVC006,0.00,VWS V14.01,2013-05-06 13:59:00,
2013-05-06 09:04:00,55.8,53.8,29.89,NNE,21,7.5,9.0,93,0.00,,OVC006,0.00,VWS V14.01,2013-05-06 14:04:00,
2013-05-06 09:09:00,55.9,53.9,29.89,North,11,7.5,13.5,93,0.00,,OVC006,0.00,VWS V14.01,2013-05-06 14:09:00,
2013-05-06 09:14:00,56.0,54.0,29.88,NNE,16,7.5,13.5,93,0.00,,OVC006,0.00,VWS V14.01,2013-05-06 14:14:00,
2013-05-06 09:19:00,56.2,54.2,29.89,North,360,10.5,13.5,93,0.00,,OVC006,0.00,VWS V14.01,2013-05-06 14:19:00,
2013-05-06 09:24:00,56.4,54.4,29.89,North,10,13.5,13.5,93,0.00,,OVC006,0.00,VWS V14.01,2013-05-06 14:24:00,
2013-05-06 09:29:00,56.4,54.1,29.90,NNE,19,7.5,9.0,92,0.00,,OVC006,0.00,VWS V14.01,2013-05-06 14:29:00,
2013-05-06 09:34:00,56.4,54.1,29.90,NNE,23,7.5,15.0,92,0.00,,OVC006,0.00,VWS V14.01,2013-05-06 14:34:00,
2013-05-06 09:39:00,56.3,54.0,29.90,NNE,15,6.0,15.0,92,0.00,,OVC006,0.00,VWS V14.01,2013-05-06 14:39:00,
2013-05-06 09:44:00,56.3,54.0,29.90,NNE,13,7.5,15.0,92,0.00,,OVC006,0.00,VWS V14.01,2013-05-06 14:44:00,
2013-05-06 09:49:00,56.4,54.1,29.90,NNE,29,12.0,15.0,92,0.00,,OVC006,0.00,VWS V14.01,2013-05-06 14:49:00,
2013-05-06 09:54:00,56.4,54.1,29.90,NNE,13,15.0,16.5,92,0.00,,OVC006,0.00,VWS V14.01,2013-05-06 14:54:00,
2013-05-06 09:59:00,56.5,54.2,29.91,NNE,21,4.5,9.0,92,0.00,,OVC008,0.00,VWS V14.01,2013-05-06 14:59:00,
2013-05-06 10:04:00,56.6,54.3,29.91,NNE,25,12.0,13.5,92,0.00,,OVC008,0.00,VWS V14.01,2013-05-06 15:04:00,
2013-05-06 10:09:00,56.6,54.0,29.90,North,10,9.0,16.5,91,0.00,,OVC008,0.00,VWS V14.01,2013-05-06 15:09:00,
2013-05-06 10:14:00,56.6,54.3,29.91,NNE,26,10.5,18.0,92,0.00,,OVC008,0.00,VWS V14.01,2013-05-06 15:14:00,
2013-05-06 10:19:00,56.8,54.5,29.90,NNE,14,7.5,18.0,92,0.00,,OVC008,0.00,VWS V14.01,2013-05-06 15:19:00,
2013-05-06 10:24:00,56.9,54.6,29.91,North,5,9.0,18.0,92,0.00,,OVC008,0.00,VWS V14.01,2013-05-06 15:24:00,
2013-05-06 10:29:00,57.4,55.1,29.91,North,11,13.5,15.0,92,0.00,,OVC008,0.00,VWS V14.01,2013-05-06 15:29:00,
2013-05-06 10:34:00,57.5,55.2,29.91,NNE,30,12.0,19.5,92,0.00,,OVC008,0.00,VWS V14.01,2013-05-06 15:34:00,
2013-05-06 10:39:00,57.7,55.1,29.91,NNE,28,16.5,19.5,91,0.00,,OVC008,0.00,VWS V14.01,2013-05-06 15:39:00,
2013-05-06 10:44:00,57.8,55.2,29.91,NNE,22,15.0,19.5,91,0.00,,OVC008,0.00,VWS V14.01,2013-05-06 15:44:00,
2013-05-06 10:49:00,57.9,55.3,29.91,NNE,28,7.5,19.5,91,0.00,,OVC008,0.00,VWS V14.01,2013-05-06 15:49:00,
2013-05-06 10:54:00,57.9,55.0,29.92,NNE,18,13.5,22.5,90,0.00,,OVC008,0.00,VWS V14.01,2013-05-06 15:54:00,
2013-05-06 10:59:00,57.9,55.0,29.91,North,5,13.5,13.5,90,0.00,,OVC008,0.00,VWS V14.01,2013-05-06 15:59:00,
2013-05-06 11:04:00,58.0,55.1,29.91,NNE,23,12.0,15.0,90,0.00,,OVC008,0.00,VWS V14.01,2013-05-06 16:04:00,
2013-05-06 11:09:00,58.3,55.4,29.91,NNE,15,6.0,15.0,90,0.00,,OVC008,0.00,VWS V14.01,2013-05-06 16:09:00,
2013-05-06 11:14:00,58.6,55.7,29.91,North,11,7.5,18.0,90,0.00,,OVC008,0.00,VWS V14.01,2013-05-06 16:14:00,
2013-05-06 11:19:00,58.8,55.6,29.90,North,10,10.5,18.0,89,0.00,,OVC008,0.00,VWS V14.01,2013-05-06 16:19:00,
2013-05-06 11:24:00,59.1,55.9,29.91,NNE,13,10.5,18.0,89,0.00,,OVC008,0.00,VWS V14.01,2013-05-06 16:24:00,
2013-05-06 11:29:00,59.3,56.1,29.91,NNE,13,10.5,13.5,89,0.00,,OVC008,0.00,VWS V14.01,2013-05-06 16:29:00,
2013-05-06 11:34:00,59.5,56.0,29.90,NNE,14,7.5,15.0,88,0.00,,OVC008,0.00,VWS V14.01,2013-05-06 16:34:00,
2013-05-06 11:39:00,59.9,56.3,29.90,NNE,12,13.5,18.0,88,0.00,,OVC008,0.00,VWS V14.01,2013-05-06 16:39:00,
2013-05-06 11:44:00,60.1,56.5,29.90,NNE,32,6.0,18.0,88,0.00,,OVC008,0.00,VWS V14.01,2013-05-06 16:44:00,
2013-05-06 11:49:00,60.5,56.9,29.90,NNE,13,7.5,18.0,88,0.00,,OVC008,0.00,VWS V14.01,2013-05-06 16:49:00,
2013-05-06 11:54:00,60.9,57.0,29.90,North,360,9.0,18.0,87,0.00,,OVC008,0.00,VWS V14.01,2013-05-06 16:54:00,
2013-05-06 11:59:00,60.9,56.7,29.90,NNE,13,10.5,12.0,86,0.00,,OVC008,0.00,VWS V14.01,2013-05-06 16:59:00,
2013-05-06 12:04:00,61.1,56.9,29.90,NNE,24,10.5,12.0,86,0.00,,OVC015,0.00,VWS V14.01,2013-05-06 17:04:00,
2013-05-06 12:09:00,61.4,56.9,29.90,NNE,13,7.5,15.0,85,0.00,,OVC015,0.00,VWS V14.01,2013-05-06 17:09:00,
2013-05-06 12:14:00,61.6,57.0,29.90,NNE,13,12.0,15.0,85,0.00,,OVC015,0.00,VWS V14.01,2013-05-06 17:14:00,
2013-05-06 12:19:00,61.7,56.8,29.89,North,9,7.5,16.5,84,0.00,,OVC015,0.00,VWS V14.01,2013-05-06 17:19:00,
2013-05-06 12:24:00,61.5,56.6,29.89,NNE,14,10.5,18.0,84,0.00,,OVC015,0.00,VWS V14.01,2013-05-06 17:24:00,
2013-05-06 12:29:00,61.5,57.0,29.89,NNE,21,9.0,9.0,85,0.00,,OVC015,0.00,VWS V14.01,2013-05-06 17:29:00,
2013-05-06 12:34:00,62.0,57.5,29.89,North,5,9.0,13.5,85,0.00,,OVC015,0.00,VWS V14.01,2013-05-06 17:34:00,
2013-05-06 12:39:00,62.0,57.5,29.89,NNE,20,7.5,13.5,85,0.00,,OVC015,0.00,VWS V14.01,2013-05-06 17:39:00,
2013-05-06 12:44:00,62.1,57.2,29.89,NNE,21,13.5,15.0,84,0.00,,OVC015,0.00,VWS V14.01,2013-05-06 17:44:00,
2013-05-06 12:49:00,62.2,57.0,29.89,NNE,20,12.0,18.0,83,0.00,,OVC015,0.00,VWS V14.01,2013-05-06 17:49:00,
2013-05-06 12:54:00,62.5,56.9,29.89,NNE,19,10.5,18.0,82,0.00,,OVC015,0.00,VWS V14.01,2013-05-06 17:54:00,
2013-05-06 12:59:00,62.8,57.6,29.89,North,355,13.5,13.5,83,0.00,,OVC030,0.00,VWS V14.01,2013-05-06 17:59:00,
2013-05-06 13:04:00,63.1,57.5,29.89,NE,40,12.0,16.5,82,0.00,,OVC030,0.00,VWS V14.01,2013-05-06 18:04:00,
2013-05-06 13:10:00,63.4,57.5,29.89,NNE,22,16.5,18.0,81,0.00,,OVC030,0.00,VWS V14.01,2013-05-06 18:10:00,
2013-05-06 13:15:00,63.6,57.0,29.89,NNE,26,16.5,18.0,79,0.00,,OVC030,0.00,VWS V14.01,2013-05-06 18:15:00,
2013-05-06 13:19:00,63.2,56.6,29.89,NNE,24,9.0,19.5,79,0.00,,OVC030,0.00,VWS V14.01,2013-05-06 18:19:00,
2013-05-06 13:24:00,63.0,57.1,29.89,NNE,16,10.5,19.5,81,0.00,,OVC030,0.00,VWS V14.01,2013-05-06 18:24:00,
2013-05-06 13:29:00,63.1,57.2,29.89,North,5,10.5,12.0,81,0.00,,OVC030,0.00,VWS V14.01,2013-05-06 18:29:00,
2013-05-06 13:35:00,63.0,56.7,29.90,NNE,20,12.0,16.5,80,0.00,,OVC030,0.00,VWS V14.01,2013-05-06 18:35:00,
2013-05-06 13:40:00,62.8,56.5,29.90,North,360,9.0,16.5,80,0.00,,OVC030,0.00,VWS V14.01,2013-05-06 18:40:00,
2013-05-06 13:45:00,62.6,56.7,29.90,North,9,7.5,18.0,81,0.00,,OVC030,0.00,VWS V14.01,2013-05-06 18:45:00,
2013-05-06 13:50:00,62.4,56.5,29.90,North,9,6.0,18.0,81,0.00,,OVC030,0.00,VWS V14.01,2013-05-06 18:50:00,
2013-05-06 13:55:00,62.2,56.3,29.90,NNE,21,10.5,18.0,81,0.00,,OVC030,0.00,VWS V14.01,2013-05-06 18:55:00,
2013-05-06 14:00:00,62.1,56.5,29.90,NNE,30,3.0,6.0,82,0.00,,OVC030,0.00,VWS V14.01,2013-05-06 19:00:00,
2013-05-06 14:05:00,62.0,56.5,29.90,NNE,26,6.0,9.0,82,0.00,,OVC030,0.00,VWS V14.01,2013-05-06 19:05:00,
2013-05-06 14:10:00,61.8,56.2,29.90,NNE,27,7.5,12.0,82,0.00,,OVC030,0.00,VWS V14.01,2013-05-06 19:10:00,
2013-05-06 14:15:00,61.8,56.2,29.90,NNE,30,4.5,12.0,82,0.00,,OVC030,0.00,VWS V14.01,2013-05-06 19:15:00,
2013-05-06 14:20:00,61.8,56.2,29.90,NNE,24,6.0,12.0,82,0.00,,OVC030,0.00,VWS V14.01,2013-05-06 19:20:00,
2013-05-06 14:25:00,61.7,56.5,29.90,NNE,19,4.5,12.0,83,0.00,,OVC030,0.00,VWS V14.01,2013-05-06 19:25:00,
2013-05-06 14:30:00,61.6,56.4,29.90,NNE,19,4.5,6.0,83,0.00,,OVC030,0.00,VWS V14.01,2013-05-06 19:30:00,
2013-05-06 14:35:00,61.5,56.6,29.90,NNE,21,0.0,7.5,84,0.00,,OVC030,0.00,VWS V14.01,2013-05-06 19:35:00,
2013-05-06 14:40:00,61.4,56.9,29.90,NNE,21,0.0,7.5,85,0.00,,OVC030,0.00,VWS V14.01,2013-05-06 19:40:00,
2013-05-06 14:45:00,61.4,57.2,29.90,NNE,21,0.0,7.5,86,0.00,,OVC030,0.00,VWS V14.01,2013-05-06 19:45:00,
2013-05-06 14:50:00,61.6,57.4,29.90,NNE,21,4.5,7.5,86,0.00,,OVC030,0.00,VWS V14.01,2013-05-06 19:50:00,
2013-05-06 14:55:00,61.8,57.6,29.90,NNE,23,3.0,7.5,86,0.00,,OVC030,0.00,VWS V14.01,2013-05-06 19:55:00,
2013-05-06 15:00:00,62.0,57.5,29.90,NNE,17,6.0,10.5,85,0.00,,OVC030,0.00,VWS V14.01,2013-05-06 20:00:00,
2013-05-06 15:05:00,62.1,57.5,29.90,NNE,26,6.0,13.5,85,0.00,,BKN047,0.00,VWS V14.01,2013-05-06 20:05:00,
2013-05-06 15:10:00,61.9,57.7,29.90,NNE,22,3.0,13.5,86,0.00,,BKN047,0.00,VWS V14.01,2013-05-06 20:10:00,
2013-05-06 15:15:00,61.5,57.3,29.89,NNE,21,3.0,13.5,86,0.00,,BKN047,0.00,VWS V14.01,2013-05-06 20:15:00,
2013-05-06 15:20:00,61.3,57.4,29.89,NNE,33,0.0,13.5,87,0.00,,BKN047,0.00,VWS V14.01,2013-05-06 20:20:00,
2013-05-06 15:25:00,61.3,57.4,29.89,NNE,31,4.5,13.5,87,0.00,,BKN047,0.00,VWS V14.01,2013-05-06 20:25:00,
2013-05-06 15:30:00,61.4,57.5,29.89,NNE,24,6.0,6.0,87,0.00,,BKN047,0.00,VWS V14.01,2013-05-06 20:30:00,
2013-05-06 15:35:00,61.6,57.7,29.88,North,5,3.0,7.5,87,0.00,,BKN047,0.00,VWS V14.01,2013-05-06 20:35:00,
2013-05-06 15:40:00,61.9,58.0,29.88,NNE,13,1.5,7.5,87,0.00,,BKN047,0.00,VWS V14.01,2013-05-06 20:40:00,
2013-05-06 15:45:00,62.1,57.5,29.88,North,9,6.0,9.0,85,0.00,,BKN047,0.00,VWS V14.01,2013-05-06 20:45:00,
2013-05-06 15:50:00,62.3,58.1,29.88,NNE,12,0.0,9.0,86,0.00,,BKN047,0.00,VWS V14.01,2013-05-06 20:50:00,
2013-05-06 15:55:00,62.4,58.2,29.88,NNE,12,0.0,9.0,86,0.00,,BKN047,0.00,VWS V14.01,2013-05-06 20:55:00,
2013-05-06 16:00:00,62.5,57.9,29.88,North,350,6.0,6.0,85,0.00,,OVC065,0.00,VWS V14.01,2013-05-06 21:00:00,
2013-05-06 16:05:00,62.4,57.5,29.88,North,11,9.0,9.0,84,0.00,,OVC065,0.00,VWS V14.01,2013-05-06 21:05:00,
2013-05-06 16:10:00,62.3,57.1,29.89,North,9,7.5,10.5,83,0.00,,OVC065,0.00,VWS V14.01,2013-05-06 21:10:00,
2013-05-06 16:15:00,62.2,57.3,29.89,NNE,14,6.0,12.0,84,0.00,,OVC065,0.00,VWS V14.01,2013-05-06 21:15:00,
2013-05-06 16:20:00,62.0,57.5,29.89,North,9,3.0,12.0,85,0.00,,OVC065,0.00,VWS V14.01,2013-05-06 21:20:00,
2013-05-06 16:25:00,61.4,57.2,29.89,North,9,6.0,12.0,86,0.01,,OVC065,0.01,VWS V14.01,2013-05-06 21:25:00,
2013-05-06 16:30:00,60.9,57.0,29.89,North,10,3.0,7.5,87,0.01,,OVC065,0.01,VWS V14.01,2013-05-06 21:30:00,
2013-05-06 16:35:00,60.6,57.0,29.89,NNE,17,3.0,7.5,88,0.01,,OVC065,0.01,VWS V14.01,2013-05-06 21:35:00,
2013-05-06 16:40:00,60.5,56.9,29.89,NNE,17,0.0,7.5,88,0.01,,OVC065,0.01,VWS V14.01,2013-05-06 21:40:00,
2013-05-06 16:45:00,60.4,57.2,29.89,NNE,17,0.0,7.5,89,0.01,,OVC065,0.01,VWS V14.01,2013-05-06 21:45:00,
2013-05-06 16:50:00,60.5,57.2,29.89,NNE,17,1.5,7.5,89,0.01,,OVC065,0.01,VWS V14.01,2013-05-06 21:50:00,
2013-05-06 16:55:00,60.6,57.3,29.89,NNE,17,1.5,7.5,89,0.01,,OVC065,0.01,VWS V14.01,2013-05-06 21:55:00,
2013-05-06 17:00:00,60.6,57.3,29.89,NNE,17,0.0,3.0,89,0.01,,OVC065,0.01,VWS V14.01,2013-05-06 22:00:00,
2013-05-06 17:05:00,60.7,57.4,29.89,NNE,17,4.5,6.0,89,0.01,,OVC070,0.01,VWS V14.01,2013-05-06 22:05:00,
2013-05-06 17:10:00,60.8,57.5,29.89,NNE,17,1.5,6.0,89,0.01,,OVC070,0.01,VWS V14.01,2013-05-06 22:10:00,
2013-05-06 17:15:00,61.0,57.7,29.89,NNE,20,1.5,6.0,89,0.01,,OVC070,0.01,VWS V14.01,2013-05-06 22:15:00,
2013-05-06 17:20:00,61.2,57.6,29.89,North,360,7.5,9.0,88,0.01,,OVC070,0.01,VWS V14.01,2013-05-06 22:20:00,
2013-05-06 17:25:00,61.4,57.8,29.89,NNE,17,3.0,9.0,88,0.01,,OVC070,0.01,VWS V14.01,2013-05-06 22:25:00,
2013-05-06 17:30:00,61.6,57.7,29.89,NNE,17,3.0,4.5,87,0.00,,OVC070,0.01,VWS V14.01,2013-05-06 22:30:00,
2013-05-06 17:35:00,61.8,57.6,29.89,NNE,17,4.5,6.0,86,0.00,,OVC070,0.01,VWS V14.01,2013-05-06 22:35:00,
2013-05-06 17:40:00,61.8,57.6,29.89,NNE,17,1.5,6.0,86,0.00,,OVC070,0.01,VWS V14.01,2013-05-06 22:40:00,
2013-05-06 17:45:00,61.9,57.7,29.89,NNE,16,3.0,7.5,86,0.00,,OVC070,0.01,VWS V14.01,2013-05-06 22:45:00,
2013-05-06 17:50:00,62.0,57.8,29.89,NNE,16,1.5,7.5,86,0.00,,OVC070,0.01,VWS V14.01,2013-05-06 22:50:00,
2013-05-06 17:55:00,62.0,57.8,29.89,NNE,16,3.0,7.5,86,0.00,,OVC070,0.01,VWS V14.01,2013-05-06 22:55:00,
2013-05-06 18:00:00,62.1,57.9,29.89,NNE,16,0.0,1.5,86,0.00,,OVC070,0.01,VWS V14.01,2013-05-06 23:00:00,
2013-05-06 18:05:00,62.2,58.0,29.89,NNE,16,4.5,4.5,86,0.00,,OVC085,0.01,VWS V14.01,2013-05-06 23:05:00,
2013-05-06 18:10:00,62.3,58.1,29.90,NNE,19,0.0,6.0,86,0.00,,OVC085,0.01,VWS V14.01,2013-05-06 23:10:00,
2013-05-06 18:15:00,62.4,57.8,29.90,NNE,18,0.0,6.0,85,0.00,,OVC085,0.01,VWS V14.01,2013-05-06 23:15:00,
2013-05-06 18:20:00,62.5,57.9,29.89,NNE,18,1.5,6.0,85,0.00,,OVC085,0.01,VWS V14.01,2013-05-06 23:20:00,
2013-05-06 18:25:00,62.4,57.5,29.89,NNE,18,1.5,6.0,84,0.00,,OVC085,0.01,VWS V14.01,2013-05-06 23:25:00,
2013-05-06 18:30:00,62.5,57.6,29.89,NNE,18,0.0,4.5,84,0.00,,OVC085,0.01,VWS V14.01,2013-05-06 23:30:00,
2013-05-06 18:35:00,62.5,57.6,29.89,NNE,18,0.0,4.5,84,0.00,,OVC085,0.01,VWS V14.01,2013-05-06 23:35:00,
2013-05-06 18:40:00,62.5,57.6,29.90,NNE,18,0.0,4.5,84,0.00,,OVC080,0.01,VWS V14.01,2013-05-06 23:40:00,
2013-05-06 18:45:00,62.5,57.6,29.90,NNE,18,0.0,4.5,84,0.00,,OVC080,0.01,VWS V14.01,2013-05-06 23:45:00,
2013-05-06 18:50:00,62.5,57.6,29.90,NNE,18,0.0,4.5,84,0.00,,OVC080,0.01,VWS V14.01,2013-05-06 23:50:00,
2013-05-06 18:55:00,62.4,57.5,29.90,NNE,18,0.0,4.5,84,0.00,,OVC080,0.01,VWS V14.01,2013-05-06 23:55:00,
2013-05-06 19:00:00,62.3,57.4,29.90,NNE,18,0.0,0.0,84,0.00,,OVC065,0.01,VWS V14.01,2013-05-07 00:00:00,
2013-05-06 19:05:00,62.3,57.4,29.90,NNE,18,0.0,4.5,84,0.00,,OVC065,0.01,VWS V14.01,2013-05-07 00:05:00,
2013-05-06 19:10:00,62.3,57.4,29.90,NNE,18,0.0,4.5,84,0.00,,OVC065,0.01,VWS V14.01,2013-05-07 00:10:00,
2013-05-06 19:15:00,62.2,57.3,29.90,NNE,18,0.0,4.5,84,0.00,,OVC065,0.01,VWS V14.01,2013-05-07 00:15:00,
2013-05-06 19:20:00,62.2,57.3,29.89,NNE,18,0.0,4.5,84,0.00,,OVC080,0.01,VWS V14.01,2013-05-07 00:20:00,
2013-05-06 19:25:00,62.1,57.2,29.89,NNE,18,0.0,4.5,84,0.00,,OVC080,0.01,VWS V14.01,2013-05-07 00:25:00,
2013-05-06 19:30:00,62.0,57.1,29.90,NNE,18,0.0,0.0,84,0.00,,OVC080,0.01,VWS V14.01,2013-05-07 00:30:00,
2013-05-06 19:35:00,62.0,57.1,29.90,NNE,18,0.0,0.0,84,0.00,,OVC080,0.01,VWS V14.01,2013-05-07 00:35:00,
2013-05-06 19:40:00,62.0,57.5,29.90,NNE,18,0.0,0.0,85,0.00,,OVC080,0.01,VWS V14.01,2013-05-07 00:40:00,
2013-05-06 19:45:00,61.9,57.3,29.90,NNE,18,0.0,3.0,85,0.00,,OVC080,0.01,VWS V14.01,2013-05-07 00:45:00,
2013-05-06 19:50:00,61.9,57.3,29.90,NNE,18,0.0,3.0,85,0.00,,OVC080,0.01,VWS V14.01,2013-05-07 00:50:00,
2013-05-06 19:55:00,61.8,57.2,29.90,NNE,18,0.0,3.0,85,0.00,,OVC080,0.01,VWS V14.01,2013-05-07 00:55:00,
2013-05-06 20:00:00,61.7,57.2,29.90,NNE,18,0.0,0.0,85,0.00,,OVC090,0.01,VWS V14.01,2013-05-07 01:00:00,
2013-05-06 20:05:00,61.7,57.2,29.91,NNE,18,0.0,0.0,85,0.00,,OVC090,0.01,VWS V14.01,2013-05-07 01:05:00,
2013-05-06 20:10:00,61.6,57.4,29.91,NNE,18,0.0,0.0,86,0.00,,OVC090,0.01,VWS V14.01,2013-05-07 01:10:00,
2013-05-06 20:15:00,61.6,57.4,29.91,NNE,18,0.0,0.0,86,0.00,,OVC090,0.01,VWS V14.01,2013-05-07 01:15:00,
2013-05-06 20:20:00,61.5,57.3,29.91,NNE,18,0.0,0.0,86,0.00,,OVC090,0.01,VWS V14.01,2013-05-07 01:20:00,
2013-05-06 20:25:00,61.4,57.2,29.91,NNE,18,0.0,0.0,86,0.00,,OVC090,0.01,VWS V14.01,2013-05-07 01:25:00,
2013-05-06 20:31:00,61.4,57.2,29.91,NNE,18,0.0,0.0,86,0.00,,OVC090,0.01,VWS V14.01,2013-05-07 01:31:00,
2013-05-06 20:35:00,61.3,57.1,29.91,NNE,18,0.0,1.5,86,0.00,,OVC090,0.01,VWS V14.01,2013-05-07 01:35:00,
2013-05-06 20:41:00,61.2,57.0,29.91,NNE,18,0.0,1.5,86,0.00,,BKN100,0.01,VWS V14.01,2013-05-07 01:41:00,
2013-05-06 20:46:00,61.1,56.9,29.91,NNE,18,0.0,1.5,86,0.00,,BKN100,0.01,VWS V14.01,2013-05-07 01:46:00,
2013-05-06 20:50:00,60.9,56.7,29.91,NNE,18,0.0,1.5,86,0.00,,BKN100,0.01,VWS V14.01,2013-05-07 01:50:00,
2013-05-06 20:56:00,60.9,56.7,29.92,NNE,18,0.0,1.5,86,0.00,,BKN100,0.01,VWS V14.01,2013-05-07 01:56:00,
2013-05-06 21:01:00,60.7,56.5,29.92,NNE,18,0.0,0.0,86,0.00,,BKN100,0.01,VWS V14.01,2013-05-07 02:01:00,
2013-05-06 21:05:00,60.6,56.4,29.92,NNE,18,0.0,0.0,86,0.00,,BKN100,0.01,VWS V14.01,2013-05-07 02:05:00,
2013-05-06 21:10:00,60.5,56.3,29.92,NNE,18,0.0,0.0,86,0.00,,BKN100,0.01,VWS V14.01,2013-05-07 02:10:00,
2013-05-06 21:15:00,60.2,56.0,29.92,NNE,18,0.0,0.0,86,0.00,,BKN100,0.01,VWS V14.01,2013-05-07 02:15:00,
2013-05-06 21:20:00,59.9,55.7,29.92,NNE,18,0.0,0.0,86,0.00,,OVC090,0.01,VWS V14.01,2013-05-07 02:20:00,
2013-05-06 21:26:00,59.7,55.8,29.92,NNE,18,0.0,0.0,87,0.00,,OVC090,0.01,VWS V14.01,2013-05-07 02:26:00,
2013-05-06 21:31:00,59.5,55.6,29.93,NNE,18,0.0,0.0,87,0.00,,OVC090,0.01,VWS V14.01,2013-05-07 02:31:00,
2013-05-06 21:36:00,59.3,55.8,29.93,NNE,18,0.0,0.0,88,0.00,,OVC090,0.01,VWS V14.01,2013-05-07 02:36:00,
2013-05-06 21:41:00,59.2,55.7,29.93,NNE,18,0.0,0.0,88,0.00,,BKN090,0.01,VWS V14.01,2013-05-07 02:41:00,
2013-05-06 21:46:00,59.1,55.9,29.93,NNE,18,0.0,0.0,89,0.00,,BKN090,0.01,VWS V14.01,2013-05-07 02:46:00,
2013-05-06 21:51:00,59.0,55.8,29.93,NNE,18,0.0,0.0,89,0.00,,BKN090,0.01,VWS V14.01,2013-05-07 02:51:00,
2013-05-06 21:56:00,59.0,56.1,29.93,NNE,18,0.0,0.0,90,0.00,,BKN090,0.01,VWS V14.01,2013-05-07 02:56:00,
2013-05-06 22:01:00,58.9,56.0,29.93,NNE,18,0.0,0.0,90,0.00,,OVC090,0.01,VWS V14.01,2013-05-07 03:01:00,
2013-05-06 22:06:00,58.8,55.9,29.93,NNE,18,0.0,0.0,90,0.00,,OVC090,0.01,VWS V14.01,2013-05-07 03:06:00,
2013-05-06 22:11:00,58.8,55.9,29.93,NNE,18,0.0,0.0,90,0.00,,OVC090,0.01,VWS V14.01,2013-05-07 03:11:00,
2013-05-06 22:16:00,58.7,55.8,29.93,NNE,18,0.0,0.0,90,0.00,,OVC090,0.01,VWS V14.01,2013-05-07 03:16:00,
2013-05-06 22:21:00,58.6,55.7,29.93,NNE,18,0.0,0.0,90,0.00,,BKN090,0.01,VWS V14.01,2013-05-07 03:21:00,
2013-05-06 22:26:00,58.5,55.9,29.93,NNE,18,0.0,0.0,91,0.00,,BKN090,0.01,VWS V14.01,2013-05-07 03:26:00,
2013-05-06 22:31:00,58.4,55.8,29.93,NNE,18,0.0,0.0,91,0.00,,BKN090,0.01,VWS V14.01,2013-05-07 03:31:00,
2013-05-06 22:36:00,58.4,55.8,29.93,NNE,18,0.0,0.0,91,0.00,,BKN090,0.01,VWS V14.01,2013-05-07 03:36:00,
2013-05-06 22:41:00,58.3,55.7,29.93,NNE,18,0.0,0.0,91,0.00,,,0.01,VWS V14.01,2013-05-07 03:41:00,
2013-05-06 22:46:00,58.2,55.6,29.93,NNE,18,0.0,1.5,91,0.00,,,0.01,VWS V14.01,2013-05-07 03:46:00,
2013-05-06 22:51:00,58.2,55.6,29.93,NNE,18,0.0,1.5,91,0.00,,,0.01,VWS V14.01,2013-05-07 03:51:00,
2013-05-06 22:56:00,58.1,55.8,29.93,NNE,18,0.0,1.5,92,0.00,,,0.01,VWS V14.01,2013-05-07 03:56:00,
2013-05-06 23:01:00,58.1,55.8,29.93,NNE,18,0.0,0.0,92,0.00,,,0.01,VWS V14.01,2013-05-07 04:01:00,
2013-05-06 23:02:00,58.0,55.7,29.93,NNE,18,0.0,0.0,92,0.00,,,0.01,VWS V14.01,2013-05-07 04:02:00,
2013-05-06 23:07:00,57.9,55.3,29.93,NNE,18,0.0,0.0,91,0.00,,,0.01,VWS V14.01,2013-05-07 04:07:00,
2013-05-06 23:12:00,57.8,55.2,29.93,NNE,18,0.0,0.0,91,0.00,,,0.01,VWS V14.01,2013-05-07 04:12:00,
2013-05-06 23:17:00,57.6,55.0,29.93,NNE,18,0.0,0.0,91,0.00,,,0.01,VWS V14.01,2013-05-07 04:17:00,
2013-05-06 23:22:00,57.5,54.9,29.93,NNE,18,0.0,0.0,91,0.00,,,0.01,VWS V14.01,2013-05-07 04:22:00,
2013-05-06 23:27:00,57.3,54.7,29.93,NNE,18,0.0,0.0,91,0.00,,,0.01,VWS V14.01,2013-05-07 04:27:00,
2013-05-06 23:32:00,57.1,54.5,29.93,NNE,18,0.0,0.0,91,0.00,,,0.01,VWS V14.01,2013-05-07 04:32:00,
2013-05-06 23:37:00,56.9,54.3,29.93,NNE,18,0.0,0.0,91,0.00,,SCT050,0.01,VWS V14.01,2013-05-07 04:37:00,
2013-05-06 23:42:00,56.7,54.1,29.93,NNE,18,0.0,0.0,91,0.00,,SCT050,0.01,VWS V14.01,2013-05-07 04:42:00,
2013-05-06 23:47:00,56.6,54.0,29.93,NNE,18,0.0,0.0,91,0.00,,SCT050,0.01,VWS V14.01,2013-05-07 04:47:00,
2013-05-06 23:52:00,56.5,53.9,29.93,NNE,18,0.0,0.0,91,0.00,,SCT050,0.01,VWS V14.01,2013-05-07 04:52:00,
2013-05-06 23:57:00,56.3,53.7,29.93,NNE,18,0.0,0.0,91,0.00,,SCT050,0.01,VWS V14.01,2013-05-07 04:57:00,